Tracking 19854 objects as of 23-Sep-2019
HD Live streaming from Space Station
objects crossing your sky now

STARLINK OBJ AR

Track STARLINK OBJ AR now!
10-day predictions
STARLINK OBJ AR is classified as:


NORAD ID: 44274
Int'l Code: 2019-029AR
Perigee: 556.0 km
Apogee: 558.3 km
Inclination: 53.0 °
Period: 95.6 minutes
Semi major axis: 6928 km
RCS: Unknown
Launch date: May 24, 2019
Source: United States (US)
Launch site: AIR FORCE EASTERN TEST RANGE (AFETR)
aabbcc
Your satellite tracking list
Your tracking list is empty




NASA's NSSDC Master Catalog

Two Line Element Set (TLE):
1 44274U 19029AR  19265.10015331  .00001217  00000-0  10292-3 0  9997
2 44274  53.0028 348.0527 0001624 126.1904 233.9234 15.05489335 18374
Source of the keplerian elements: AFSPC